SCP
0 0 0 0 0 0 0 0 -0 -0 0 0 0 0 0 0 0 0 0 0 0 0 0 0 0 0 0 0 0 0 0 0 0 0 0 0 0 0 0 0 0 0 0
0 0 0 0 0 0 -0 -0 -0 -0 0 0 0 0 0 0 0 0 0 0 0 0 0 0 0 0 0 0 0 0 0 0 0 0 0 0 0 0 0 0 0 0 0
0 0 0 0 0 -0 -0 -0 -0 -0 -0 0 0 0 0 0 0 0 0 0 0 0 0 -0 0 0 0 0 0 0 0 0 0 0 0 0 0 0 0 0 0 0 0
0 0 0 0 0 0 0 0 0 -0 -0 -0 0 0 0 0 0 0 0 0 0 0 0 0 0 0 0 0 0 0 0 0 0 0 0 0 0 0 0 0 0 0 0
0 0 0 0 0 0 0 0 0 0 0 0 0 0 0 0 0 0 0 0 0 0 0 0 0 0 0 0 0 0 0 0 0 0 0 0 0 0 0 0 0 0 0
0 0 0 0 0 0 0 0 0 0 0 0 0 0 0 0 0 0 0 0 0 0 0 0 0 0 0 0 0 0 0 0 0 0 0 0 0 0 0 0 0 0 0
0 0 0 0 0 0 0 0 0 0 0 0 0 0 0 0 0 0 0 0 0 0 0 0 0 0 0 0 0 0 0 0 0 0 0 0 0 0 0 0 0 0 0
0 0 0 0 0 0 0 0 0 0 0 0 0 0 0 0 0 0 0 0 0 0 0 0 0 0 0 0 0 0 0 0 0 0 0 0 0 0 0 0 0 0 0
0 0 0 0 0 0 0 0 0 0 0 0 0 0 0 0 0 0 0 0 0 0 0 0 0 0 0 0 0 0 0 0 0 0 0 0 0 0 0 0 0 0 0
0 0 0 0 0 0 0 0 0 0 0 0 0 0 0 0 0 0 0 0 0 0 0 -0 -0 0 0 0 0 0 0 0 0 0 0 0 0 0 0 0 0 0 0
0 0 0 0 0 0 0 0 0 0 0 0 0 0 0 0 0 0 0 0 0 0 0 0 0 0 0 -0 0 0 0 0 0 0 0 0 0 0 0 0 0 0 0
0 0 0 0 0 0 0 0 0 0 0 0 0 0 0 0 0 0 0 0 0 0 0 0 0 0 0 0 0 0 0 0 0 0 0 0 0 0 0 0 0 0 0
0 0 0 0 0 0 0 0 0 0 0 0 0 0 0 0 0 0 0 0 0 0 0 0 0 0 0 0 0 0 0 0 0 0 0 0 0 0 0 0 0 0 0
0 0 0 0 0 0 0 0 0 0 0 0 0 0 0 0 0 0 0 0 0 0 0 0 0 0 0 0 0 0 0 0 0 0 0 0 0 0 0 0 0 0 0
0 0 0 0 0 0 0 0 0 0 0 0 0 0 0 0 0 0 0 0 0 0 0 0 0 0 0 0 0 0 0 0 0 0 0 0 0 0 0 0 0 0 0
0 0 0 0 0 0 0 0 0 0 0 0 0 0 0 0 0 0 0 0 0 0 0 0 0 0 0 0 0 0 0 0 0 0 0 0 0 0 0 0 0 0 0
0 0 0 0 0 0 0 0 0 0 0 0 0 0 0 0 0 0 0 0 0 0 0 0 0 0 0 0 0 0 0 0 0 0 0 0 0 0 0 0 0 0 0
0 0 0 0 0 0 0 0 0 0 0 0 0 0 0 0 0 0 0 0 0 0 0 0 0 0 0 0 0 0 0 0 0 0 0 0 0 0 0 0 0 0 0
0 0 0 0 0 0 0 0 0 0 0 0 0 0 0 0 0 0 0 0 0 0 0 0 0 0 0 0 0 0 0 0 0 0 0 0 0 0 0 0 0 0 0
0 0 0 0 0 0 0 0 0 0 0 0 0 0 0 0 0 0 0 0 0 0 0 0 0 0 0 0 0 0 0 0 0 0 0 0 0 0 0 0 0 0 0
0 0 0 0 0 0 0 0 0 0 0 0 0 0 0 0 0 0 0 0 0 0 0 0 0 0 0 0 0 0 0 0 0 0 0 0 0 0 0 0 0 0 0
0 0 0 0 0 0 0 0 0 0 0 0 0 0 0 0 0 0 0 0 0 0 0 0 0 0 0 0 0 0 0 0 0 0 0 0 0 0 0 0 0 0 0
0 0 0 0 0 0 0 0 0 0 0 0 0 0 0 0 0 0 0 0 0 0 0 0 0 0 0 0 0 0 0 0 0 0 0 0 0 0 0 0 0 0 0
0 0 0 0 0 -0 0 0 0 0 -0 -0 -0 0 0 0 0 0 0 0 0 0 0 0 0 0 0 0 0 0 0 0 0 0 0 0 0 0 0 0 0 0 0
0 0 0 0 0 0 -0 0 0 0 -0 -0 -0 0 0 0 0 0 0 0 0 0 0 0 0 0 0 0 0 0 0 0 0 0 0 0 0 0 0 0 0 0 0
0 0 0 0 0 0 0 0 0 0 0 0 0 0 0 0 0 0 0 0 0 0 0 0 0 0 0 0 0 0 0 0 0 0 0 0 0 0 0 0 0 0 0
Wind_Speed_500mb
21 17 12 17 28 31 33 35 35 33 30 29 26 18 21 25 28 32 35 36 38 36 35 37 37 47 48 43 42 48 50 53 58 49 51 46 41 37 35 33 30 22 20
17 28 38 41 33 35 33 33 33 30 32 35 35 31 28 22 28 32 35 34 33 35 35 31 37 41 50 43 38 40 46 55 59 52 51 43 44 41 39 35 30 25 20
27 22 17 12 21 39 36 35 38 38 37 36 36 36 35 32 30 30 34 36 35 35 36 37 29 38 52 60 45 38 33 44 43 47 50 50 45 42 40 40 33 27 22
30 27 23 22 23 28 34 35 36 37 34 31 32 37 33 37 36 40 43 39 37 35 33 30 29 20 35 45 56 50 40 35 41 46 50 52 50 43 41 43 36 30 24
23 26 32 35 35 38 43 49 52 52 48 44 39 40 32 36 42 49 51 48 47 42 36 31 24 29 26 24 42 49 44 39 34 41 48 53 56 48 42 45 41 30 27
26 34 41 47 51 56 61 63 65 65 61 59 59 58 52 47 43 53 59 57 58 54 46 39 35 29 28 27 26 36 51 50 47 44 44 52 59 57 46 46 41 38 33
36 42 45 49 52 56 59 58 61 60 57 53 49 48 52 60 60 58 57 64 63 62 60 50 45 38 40 35 32 29 31 44 54 52 55 50 54 53 46 42 43 35 34
41 44 49 52 53 53 53 51 51 51 52 54 53 48 50 50 54 60 66 71 72 70 71 62 55 50 40 40 44 39 30 25 39 55 60 58 46 49 40 41 46 38 33
46 46 47 46 46 45 48 52 53 52 52 57 57 56 57 55 52 52 58 67 77 82 77 75 64 57 50 49 46 39 36 31 27 42 44 51 54 40 49 48 41 36 32
38 39 40 40 46 52 54 51 48 48 55 60 63 55 55 58 53 52 50 56 64 69 76 76 76 69 61 62 60 54 42 33 27 27 41 44 54 58 45 58 62 40 36
41 38 39 45 51 45 43 45 46 48 51 52 53 55 55 54 49 47 43 45 50 56 62 66 65 72 72 72 67 63 54 43 36 32 28 35 54 64 60 67 59 49 36
36 37 41 49 45 44 43 43 43 45 47 49 52 54 50 48 48 44 39 38 39 43 53 60 56 54 60 67 64 65 62 57 43 41 33 38 54 66 59 64 72 70 46
39 36 37 43 40 38 40 42 44 43 46 51 53 55 56 52 51 47 46 44 40 39 40 47 49 48 53 54 48 48 47 48 51 46 43 36 46 47 60 70 78 81 72
38 36 36 38 38 37 36 37 39 40 42 44 48 51 55 54 51 50 47 45 49 51 52 49 55 56 57 53 49 45 47 46 48 51 48 46 30 56 57 83 77 72 71
40 42 42 41 43 45 42 41 42 41 42 45 46 47 51 55 50 45 48 52 51 52 56 64 68 67 59 57 51 48 49 47 44 51 47 43 42 35 71 63 73 64 64
41 39 41 41 42 45 48 51 45 46 46 45 46 46 48 50 52 49 48 48 46 48 54 64 69 67 65 56 53 37 41 47 42 48 49 44 41 38 34 58 66 59 62
42 44 40 42 46 48 49 52 59 52 49 48 48 52 50 54 54 51 48 48 47 46 53 59 59 52 60 56 52 42 37 35 39 45 53 48 43 42 37 42 44 39 52
46 45 41 44 46 50 54 56 57 61 67 66 51 50 50 54 57 56 46 45 50 51 54 58 61 54 51 50 53 45 41 36 37 43 44 45 42 47 46 43 46 45 48
50 50 46 46 48 54 56 56 57 63 69 69 68 64 63 63 58 53 47 48 52 53 50 53 51 51 51 47 45 46 46 40 38 43 45 47 42 50 48 46 46 49 45
54 50 46 48 54 55 56 59 63 68 72 66 66 66 61 57 56 56 52 52 51 51 47 47 50 47 44 42 43 43 43 37 40 36 49 51 45 50 54 50 51 51 46
65 58 47 49 52 54 57 59 64 66 67 66 66 61 55 54 57 55 52 50 46 47 47 44 44 40 41 38 38 37 40 38 27 42 49 54 51 49 46 48 44 48 48
61 54 48 48 52 56 60 58 60 60 62 62 62 58 54 51 52 51 48 44 42 45 39 40 43 38 34 36 35 36 37 37 27 30 40 45 42 47 47 50 45 44 44
56 53 49 53 57 59 57 57 59 59 58 57 57 56 53 52 50 50 48 45 40 42 34 38 38 47 32 32 33 34 37 40 24 33 31 42 47 48 43 46 53 44 49
54 50 51 58 59 55 56 59 59 57 55 54 54 54 52 50 49 48 46 44 40 38 40 33 35 38 45 30 30 40 43 43 30 26 29 25 32 39 42 41 45 51 51
53 52 53 61 63 60 61 60 57 53 52 52 54 53 51 49 48 45 42 39 38 37 36 41 32 34 40 44 34 35 44 50 35 29 25 29 31 29 35 33 36 40 39
55 56 56 62 63 61 61 59 56 53 54 54 53 51 49 48 45 41 38 36 35 33 36 35 37 37 43 48 39 37 40 49 44 35 27 34 35 31 26 31 36 33 47
Wind_Direction_500mb
67 50 21 3 356 347 355 345 349 346 347 339 331 317 294 291 295 294 297 301 301 307 294 281 271 245 242 242 246 252 252 244 241 247 246 246 246 242 243 254 259 274 268
330 324 302 303 330 318 319 322 324 324 331 325 316 314 305 293 292 295 296 294 304 310 318 305 270 245 235 233 247 260 260 244 235 249 242 239 241 238 240 241 248 260 268
310 306 319 325 311 315 308 299 301 307 311 312 303 299 298 293 287 294 298 298 300 306 313 318 313 256 241 243 245 256 264 260 241 246 243 233 235 235 238 235 241 249 252
284 299 305 300 289 291 293 291 290 293 293 285 292 292 283 284 287 286 289 292 295 297 304 319 315 310 271 250 245 248 257 262 252 240 242 235 236 230 234 234 238 240 244
272 280 289 291 290 286 284 285 290 291 288 285 280 265 268 266 266 272 278 282 287 290 294 292 299 297 287 272 253 239 242 250 255 244 239 238 240 229 231 231 231 235 235
277 286 288 290 292 292 292 293 294 293 289 284 276 275 269 259 255 251 262 271 277 281 286 287 284 280 296 300 299 257 242 240 242 252 248 242 242 232 230 228 229 229 234
301 303 301 302 302 301 300 299 297 296 295 293 287 281 273 265 258 253 251 257 264 271 278 281 283 286 279 283 290 287 267 247 241 245 250 251 253 245 230 233 231 240 237
306 307 306 307 307 307 307 306 304 298 296 293 291 286 280 276 269 262 255 255 258 258 264 270 271 275 281 285 281 283 280 264 243 244 245 245 255 247 231 218 245 241 241
310 308 309 311 310 308 308 310 310 307 304 299 292 287 285 281 278 272 268 263 258 260 258 261 265 266 270 274 280 285 279 275 263 246 249 242 236 239 239 219 217 237 238
311 315 316 314 311 307 304 300 299 300 301 302 301 297 288 284 282 280 274 272 269 266 265 262 260 262 258 260 267 277 282 280 278 262 248 239 236 234 233 223 225 246 228
311 317 319 315 311 307 305 306 307 306 306 307 307 304 300 295 289 285 280 279 281 277 270 270 265 263 258 262 263 264 271 278 266 263 260 251 239 224 226 220 227 223 218
316 318 319 319 325 324 322 322 320 315 312 316 318 313 308 302 300 294 285 278 278 277 276 271 274 273 268 264 268 265 268 263 257 261 249 262 244 222 231 230 232 226 210
310 310 315 320 326 325 324 326 326 325 319 314 311 310 313 312 305 298 288 277 272 270 276 271 275 275 269 268 266 265 262 257 242 246 248 253 253 242 230 226 214 209 221
315 315 318 324 323 321 317 313 309 311 310 308 306 305 308 312 311 305 296 283 267 265 267 273 271 270 264 269 269 261 262 255 242 237 242 239 239 232 230 220 210 218 231
321 319 321 317 315 313 310 312 311 309 308 304 305 304 303 302 308 309 299 291 279 269 270 268 268 267 272 267 268 269 265 264 246 233 236 240 236 228 222 225 218 211 207
330 325 322 324 324 319 317 317 317 316 313 307 301 297 300 301 306 304 303 304 291 280 273 269 272 272 271 272 270 272 257 259 247 230 230 236 230 228 221 218 225 222 226
332 333 332 330 326 324 321 319 318 320 317 316 308 303 298 299 299 296 291 294 289 282 274 272 271 270 267 268 268 261 256 241 244 228 226 232 229 224 227 227 229 232 230
339 335 330 326 326 323 320 318 315 317 319 317 313 307 300 296 295 293 288 284 285 284 274 274 271 267 271 266 264 258 251 246 237 228 223 222 230 216 222 228 227 224 235
338 336 329 324 321 319 318 316 314 317 319 315 314 311 309 307 302 295 288 280 279 281 285 273 273 274 267 264 260 254 242 249 231 235 217 214 220 215 214 215 226 228 222
333 330 326 319 317 319 321 319 317 315 315 311 308 308 308 307 302 299 292 284 276 277 278 273 269 271 263 258 258 250 240 248 234 226 218 211 210 212 208 211 211 216 220
329 330 321 315 319 324 321 318 315 312 311 309 306 306 305 300 297 293 292 289 275 273 266 267 260 269 258 251 253 246 234 239 224 218 219 202 205 212 204 207 209 211 212
331 331 330 329 330 325 321 318 316 313 309 307 307 307 306 300 296 293 290 284 274 274 263 261 255 248 257 246 243 235 230 231 220 204 196 195 194 194 193 200 204 208 206
336 335 339 338 333 327 324 322 321 320 318 313 310 308 307 302 296 292 287 284 274 275 253 259 256 239 238 243 231 223 226 225 204 183 181 188 198 197 194 198 201 194 202
340 343 343 341 338 334 332 331 330 328 323 319 316 312 309 305 299 293 288 284 278 266 254 247 251 245 227 225 226 222 218 219 204 166 161 184 183 193 194 196 199 201 200
347 345 344 345 346 344 341 338 335 332 329 327 323 318 314 309 304 298 291 281 274 266 253 240 242 235 226 225 217 218 216 216 194 173 180 191 191 186 190 195 200 206 201
356 354 350 350 351 349 348 344 342 339 337 334 330 325 321 315 309 301 291 280 272 261 246 231 237 230 227 222 214 203 207 209 199 191 188 192 194 196 201 212 213 217 207
Wind_Speed_850mb
21 17 12 17 28 31 33 35 35 33 30 29 26 18 21 25 28 32 35 36 38 36 35 37 37 47 48 43 42 48 50 53 58 49 51 46 41 37 35 33 30 22 20
17 28 38 41 33 35 33 33 33 30 32 35 35 31 28 22 28 32 35 34 33 35 35 31 37 41 50 43 38 40 46 55 59 52 51 43 44 41 39 35 30 25 20
27 22 17 12 21 39 36 35 38 38 37 36 36 36 35 32 30 30 34 36 35 35 36 37 29 38 52 60 45 38 33 44 43 47 50 50 45 42 40 40 33 27 22
30 27 23 22 23 28 34 35 36 37 34 31 32 37 33 37 36 40 43 39 37 35 33 30 29 20 35 45 56 50 40 35 41 46 50 52 50 43 41 43 36 30 24
23 26 32 35 35 38 43 49 52 52 48 44 39 40 32 36 42 49 51 48 47 42 36 31 24 29 26 24 42 49 44 39 34 41 48 53 56 48 42 45 41 30 27
26 34 41 47 51 56 61 63 65 65 61 59 59 58 52 47 43 53 59 57 58 54 46 39 35 29 28 27 26 36 51 50 47 44 44 52 59 57 46 46 41 38 33
36 42 45 49 52 56 59 58 61 60 57 53 49 48 52 60 60 58 57 64 63 62 60 50 45 38 40 35 32 29 31 44 54 52 55 50 54 53 46 42 43 35 34
41 44 49 52 53 53 53 51 51 51 52 54 53 48 50 50 54 60 66 71 72 70 71 62 55 50 40 40 44 39 30 25 39 55 60 58 46 49 40 41 46 38 33
46 46 47 46 46 45 48 52 53 52 52 57 57 56 57 55 52 52 58 67 77 82 77 75 64 57 50 49 46 39 36 31 27 42 44 51 54 40 49 48 41 36 32
38 39 40 40 46 52 54 51 48 48 55 60 63 55 55 58 53 52 50 56 64 69 76 76 76 69 61 62 60 54 42 33 27 27 41 44 54 58 45 58 62 40 36
41 38 39 45 51 45 43 45 46 48 51 52 53 55 55 54 49 47 43 45 50 56 62 66 65 72 72 72 67 63 54 43 36 32 28 35 54 64 60 67 59 49 36
36 37 41 49 45 44 43 43 43 45 47 49 52 54 50 48 48 44 39 38 39 43 53 60 56 54 60 67 64 65 62 57 43 41 33 38 54 66 59 64 72 70 46
39 36 37 43 40 38 40 42 44 43 46 51 53 55 56 52 51 47 46 44 40 39 40 47 49 48 53 54 48 48 47 48 51 46 43 36 46 47 60 70 78 81 72
38 36 36 38 38 37 36 37 39 40 42 44 48 51 55 54 51 50 47 45 49 51 52 49 55 56 57 53 49 45 47 46 48 51 48 46 30 56 57 83 77 72 71
40 42 42 41 43 45 42 41 42 41 42 45 46 47 51 55 50 45 48 52 51 52 56 64 68 67 59 57 51 48 49 47 44 51 47 43 42 35 71 63 73 64 64
41 39 41 41 42 45 48 51 45 46 46 45 46 46 48 50 52 49 48 48 46 48 54 64 69 67 65 56 53 37 41 47 42 48 49 44 41 38 34 58 66 59 62
42 44 40 42 46 48 49 52 59 52 49 48 48 52 50 54 54 51 48 48 47 46 53 59 59 52 60 56 52 42 37 35 39 45 53 48 43 42 37 42 44 39 52
46 45 41 44 46 50 54 56 57 61 67 66 51 50 50 54 57 56 46 45 50 51 54 58 61 54 51 50 53 45 41 36 37 43 44 45 42 47 46 43 46 45 48
50 50 46 46 48 54 56 56 57 63 69 69 68 64 63 63 58 53 47 48 52 53 50 53 51 51 51 47 45 46 46 40 38 43 45 47 42 50 48 46 46 49 45
54 50 46 48 54 55 56 59 63 68 72 66 66 66 61 57 56 56 52 52 51 51 47 47 50 47 44 42 43 43 43 37 40 36 49 51 45 50 54 50 51 51 46
65 58 47 49 52 54 57 59 64 66 67 66 66 61 55 54 57 55 52 50 46 47 47 44 44 40 41 38 38 37 40 38 27 42 49 54 51 49 46 48 44 48 48
61 54 48 48 52 56 60 58 60 60 62 62 62 58 54 51 52 51 48 44 42 45 39 40 43 38 34 36 35 36 37 37 27 30 40 45 42 47 47 50 45 44 44
56 53 49 53 57 59 57 57 59 59 58 57 57 56 53 52 50 50 48 45 40 42 34 38 38 47 32 32 33 34 37 40 24 33 31 42 47 48 43 46 53 44 49
54 50 51 58 59 55 56 59 59 57 55 54 54 54 52 50 49 48 46 44 40 38 40 33 35 38 45 30 30 40 43 43 30 26 29 25 32 39 42 41 45 51 51
53 52 53 61 63 60 61 60 57 53 52 52 54 53 51 49 48 45 42 39 38 37 36 41 32 34 40 44 34 35 44 50 35 29 25 29 31 29 35 33 36 40 39
55 56 56 62 63 61 61 59 56 53 54 54 53 51 49 48 45 41 38 36 35 33 36 35 37 37 43 48 39 37 40 49 44 35 27 34 35 31 26 31 36 33 47
Wind_Direction_850mb
67 50 21 3 356 347 355 345 349 346 347 339 331 317 294 291 295 294 297 301 301 307 294 281 271 245 242 242 246 252 252 244 241 247 246 246 246 242 243 254 259 274 268
330 324 302 303 330 318 319 322 324 324 331 325 316 314 305 293 292 295 296 294 304 310 318 305 270 245 235 233 247 260 260 244 235 249 242 239 241 238 240 241 248 260 268
310 306 319 325 311 315 308 299 301 307 311 312 303 299 298 293 287 294 298 298 300 306 313 318 313 256 241 243 245 256 264 260 241 246 243 233 235 235 238 235 241 249 252
284 299 305 300 289 291 293 291 290 293 293 285 292 292 283 284 287 286 289 292 295 297 304 319 315 310 271 250 245 248 257 262 252 240 242 235 236 230 234 234 238 240 244
272 280 289 291 290 286 284 285 290 291 288 285 280 265 268 266 266 272 278 282 287 290 294 292 299 297 287 272 253 239 242 250 255 244 239 238 240 229 231 231 231 235 235
277 286 288 290 292 292 292 293 294 293 289 284 276 275 269 259 255 251 262 271 277 281 286 287 284 280 296 300 299 257 242 240 242 252 248 242 242 232 230 228 229 229 234
301 303 301 302 302 301 300 299 297 296 295 293 287 281 273 265 258 253 251 257 264 271 278 281 283 286 279 283 290 287 267 247 241 245 250 251 253 245 230 233 231 240 237
306 307 306 307 307 307 307 306 304 298 296 293 291 286 280 276 269 262 255 255 258 258 264 270 271 275 281 285 281 283 280 264 243 244 245 245 255 247 231 218 245 241 241
310 308 309 311 310 308 308 310 310 307 304 299 292 287 285 281 278 272 268 263 258 260 258 261 265 266 270 274 280 285 279 275 263 246 249 242 236 239 239 219 217 237 238
311 315 316 314 311 307 304 300 299 300 301 302 301 297 288 284 282 280 274 272 269 266 265 262 260 262 258 260 267 277 282 280 278 262 248 239 236 234 233 223 225 246 228
311 317 319 315 311 307 305 306 307 306 306 307 307 304 300 295 289 285 280 279 281 277 270 270 265 263 258 262 263 264 271 278 266 263 260 251 239 224 226 220 227 223 218
316 318 319 319 325 324 322 322 320 315 312 316 318 313 308 302 300 294 285 278 278 277 276 271 274 273 268 264 268 265 268 263 257 261 249 262 244 222 231 230 232 226 210
310 310 315 320 326 325 324 326 326 325 319 314 311 310 313 312 305 298 288 277 272 270 276 271 275 275 269 268 266 265 262 257 242 246 248 253 253 242 230 226 214 209 221
315 315 318 324 323 321 317 313 309 311 310 308 306 305 308 312 311 305 296 283 267 265 267 273 271 270 264 269 269 261 262 255 242 237 242 239 239 232 230 220 210 218 231
321 319 321 317 315 313 310 312 311 309 308 304 305 304 303 302 308 309 299 291 279 269 270 268 268 267 272 267 268 269 265 264 246 233 236 240 236 228 222 225 218 211 207
330 325 322 324 324 319 317 317 317 316 313 307 301 297 300 301 306 304 303 304 291 280 273 269 272 272 271 272 270 272 257 259 247 230 230 236 230 228 221 218 225 222 226
332 333 332 330 326 324 321 319 318 320 317 316 308 303 298 299 299 296 291 294 289 282 274 272 271 270 267 268 268 261 256 241 244 228 226 232 229 224 227 227 229 232 230
339 335 330 326 326 323 320 318 315 317 319 317 313 307 300 296 295 293 288 284 285 284 274 274 271 267 271 266 264 258 251 246 237 228 223 222 230 216 222 228 227 224 235
338 336 329 324 321 319 318 316 314 317 319 315 314 311 309 307 302 295 288 280 279 281 285 273 273 274 267 264 260 254 242 249 231 235 217 214 220 215 214 215 226 228 222
333 330 326 319 317 319 321 319 317 315 315 311 308 308 308 307 302 299 292 284 276 277 278 273 269 271 263 258 258 250 240 248 234 226 218 211 210 212 208 211 211 216 220
329 330 321 315 319 324 321 318 315 312 311 309 306 306 305 300 297 293 292 289 275 273 266 267 260 269 258 251 253 246 234 239 224 218 219 202 205 212 204 207 209 211 212
331 331 330 329 330 325 321 318 316 313 309 307 307 307 306 300 296 293 290 284 274 274 263 261 255 248 257 246 243 235 230 231 220 204 196 195 194 194 193 200 204 208 206
336 335 339 338 333 327 324 322 321 320 318 313 310 308 307 302 296 292 287 284 274 275 253 259 256 239 238 243 231 223 226 225 204 183 181 188 198 197 194 198 201 194 202
340 343 343 341 338 334 332 331 330 328 323 319 316 312 309 305 299 293 288 284 278 266 254 247 251 245 227 225 226 222 218 219 204 166 161 184 183 193 194 196 199 201 200
347 345 344 345 346 344 341 338 335 332 329 327 323 318 314 309 304 298 291 281 274 266 253 240 242 235 226 225 217 218 216 216 194 173 180 191 191 186 190 195 200 206 201
356 354 350 350 351 349 348 344 342 339 337 334 330 325 321 315 309 301 291 280 272 261 246 231 237 230 227 222 214 203 207 209 199 191 188 192 194 196 201 212 213 217 207